sat.trackr.live / text

‹ back to catalog

STARLINK-1297

NORAD 45395 · 2020-019AM

PAYLOAD ACTIVE UNKNOWN

§ Identity

Operator
Country
US
Launch date
2020-03-18
Launch site
AFETR
Launch vehicle
Mass (kg)
RCS (m²)

Purposes: comms

External: N2YO · Heavens-Above · Gunter

§ Orbital elements

Epoch: 2026-09-15T00:00:02.000160Z

Period
90.48 min
Inclination
53.0323°
Eccentricity
0.0007069
Mean motion
15.91541606 rev/d
Perigee alt
293.2 km
Apogee alt
302.7 km
Semi-major
6,676.1 km
B*
7.1961e-4
RAAN
272.4047°
Arg perigee
35.3378°
Mean anomaly
230.7385°
Rev number
604

§ Raw data

STARLINK-12971 45395U 20019AM  26258.00002315  .00236055  31833-4  71961-3 0  99922 45395  53.0323 272.4047 0007069  35.3378 230.7385 15.91541606  6047

JSON: /api/v1/satellites/45395 · /tle

For live sub-satellite position, see the globe view (requires WebGL).

§ Visibility from observer

Set your observer location to see the next 7 days of passes ≥ 10°. The values pass through the URL so the page stays shareable.

No JS? Fill the form by hand. The geolocation button needs JavaScript.